Latest Weather Observations for Moranbah Airport

IDQ60801

Issued at 11:35 pm EST Monday 1 September 2014 (issued every 30 minutes, with the page automatically refreshed every 10 minutes)

About weather observations | Map of weather stations | Latest weather observations for QLD | Other Formats
Station Details ID: 034035 Name: MORANBAH AIRPORT Lat: -22.06 Lon: 148.08 Height: 232.2 m
Data from the previous 72 hours. | See also: Recent months at Moranbah Airport
Date/Time
EST
Temp
°C
App
Temp
°C
Dew
Point
Rel
Hum
%
Delta-T
°C
Wind Press
QNH
hPa
Press
MSL
hPa
Rain
since 9 am
mm
Dir
 
Spd
km/h
Gust
km/h
Spd
kts
Gust
kts
01/11:30pm 12.8 12.0 6.6 66 3.0 ENE 0 0 0 0 1018.1 1017.2 0.0
01/11:00pm 12.5 11.7 6.3 66 3.0 ENE 0 0 0 0 1018.2 1017.3 0.0
01/10:30pm 13.7 11.8 6.8 63 3.4 WNW 6 9 3 5 1018.2 1017.3 0.0
01/10:00pm 14.4 11.8 6.3 58 3.9 SSW 9 11 5 6 1017.8 1016.9 0.0
01/09:30pm 16.2 15.0 6.6 53 4.8 NNE 2 7 1 4 1017.8 1016.9 0.0
01/09:00pm 17.8 15.1 7.2 50 5.4 NE 11 17 6 9 1017.6 1016.7 0.0
01/08:30pm 17.8 14.6 6.7 48 5.6 NE 13 19 7 10 1017.5 1016.6 0.0
01/08:00pm 17.8 13.1 2.9 37 6.9 ENE 17 24 9 13 1017.2 1016.3 0.0
01/07:30pm 18.5 14.3 1.9 33 7.6 E 13 15 7 8 1016.9 1016.0 0.0
01/07:00pm 18.4 14.2 1.4 32 7.7 ESE 13 15 7 8 1016.6 1015.8 0.0
01/06:30pm 20.1 15.8 1.0 28 8.7 ESE 13 15 7 8 1016.2 1015.4 0.0
01/06:00pm 22.4 19.4 2.0 26 9.7 SE 7 9 4 5 1016.1 1015.3 0.0
01/05:30pm 25.3 23.0 0.7 20 11.6 ESE 2 11 1 6 1015.7 1014.9 0.0
01/05:00pm 25.9 22.3 0.5 19 12.0 SE 9 15 5 8 1015.6 1014.7 0.0
01/04:30pm 26.6 22.4 1.8 20 12.1 SE 13 19 7 10 1015.5 1014.6 0.0
01/04:00pm 26.9 22.8 -0.2 17 12.7 NE 11 15 6 8 1015.2 1014.3 0.0
01/03:30pm 26.6 22.8 -0.4 17 12.6 ESE 9 13 5 7 1015.3 1014.4 0.0
01/03:00pm 26.6 22.8 -0.4 17 12.6 SSW 9 15 5 8 1015.8 1015.0 0.0
01/02:30pm 26.7 21.8 -0.3 17 12.7 SSE 15 22 8 12 1016.0 1015.2 0.0
01/02:00pm 27.3 24.0 0.1 17 12.9 S 7 11 4 6 1016.6 1015.8 0.0
01/01:30pm 26.0 22.9 1.3 20 11.9 SE 7 15 4 8 1017.0 1016.1 0.0
01/01:00pm 26.1 21.6 0.0 18 12.2 ESE 13 22 7 12 1017.5 1016.6 0.0
01/12:30pm 26.1 22.7 2.1 21 11.7 N 9 15 5 8 1018.2 1017.3 0.0
01/12:00pm 25.2 21.6 3.2 24 10.9 N 11 17 6 9 1018.8 1017.9 0.0
01/11:30am 24.3 21.4 2.5 24 10.6 N 7 15 4 8 1019.3 1018.4 0.0
01/11:00am 23.8 20.7 3.7 27 9.9 N 9 13 5 7 1019.7 1018.9 0.0
01/10:30am 22.7 20.2 4.7 31 9.0 N 7 17 4 9 1019.7 1018.9 0.0
01/10:00am 21.2 19.0 5.5 36 7.9 NW 6 9 3 5 1019.8 1019.0 0.0
01/09:30am 20.4 18.7 6.0 39 7.3 W 4 7 2 4 1020.3 1019.8 0.0
01/09:00am 19.1 17.2 6.9 45 6.2 N 6 9 3 5 1020.6 1020.1 0.0
01/08:30am 17.1 15.9 8.0 55 4.7 NW 4 7 2 4 1020.5 1020.0 0.0
01/08:00am 14.1 12.5 7.9 66 3.1 WNW 6 7 3 4 1020.4 1019.9 0.0
01/07:30am 10.3 9.5 6.6 78 1.8 CALM 0 0 0 0 1020.3 1019.8 0.0
01/07:00am 8.0 7.0 5.8 86 1.0 CALM 0 0 0 0 1019.3 1018.8 0.0
01/06:30am 5.7 4.4 4.0 89 0.7 CALM 0 0 0 0 1018.8 1018.3 0.0
01/06:00am 6.5 5.3 4.7 88 0.8 NW 0 0 0 0 1018.5 1018.0 0.0
01/05:30am 6.1 3.7 4.3 88 0.8 W 6 6 3 3 1017.9 1017.4 0.0
01/05:00am 5.9 3.2 3.9 87 0.9 W 7 7 4 4 1017.7 1017.2 0.0
01/04:30am 6.2 3.7 3.5 83 1.2 SSW 6 7 3 4 1017.6 1017.1 0.0
01/04:00am 7.2 4.3 4.7 84 1.1 S 9 13 5 7 1017.5 1017.0 0.0
01/03:30am 7.1 5.8 4.1 81 1.3 CALM 0 0 0 0 1017.4 1016.9 0.0
01/03:00am 7.9 5.5 5.2 83 1.2 W 7 9 4 5 1017.5 1017.0 0.0
01/02:30am 7.6 6.4 4.4 80 1.4 CALM 0 0 0 0 1017.7 1017.2 0.0
01/02:00am 8.8 7.7 5.2 78 1.6 CALM 0 0 0 0 1017.8 1017.3 0.0
01/01:30am 9.0 6.2 5.2 77 1.7 S 9 11 5 6 1018.0 1017.5 0.0
01/01:00am 9.2 6.7 4.8 74 2.0 WSW 7 9 4 5 1018.2 1017.7 0.0
01/12:30am 10.2 8.8 5.6 73 2.1 S 2 6 1 3 1018.1 1017.6 0.0
01/12:00am 10.1 7.3 5.1 71 2.3 S 9 11 5 6 1018.0 1017.5 0.0
 
Date/Time
EST
Temp
°C
App
Temp
°C
Dew
Point
Rel
Hum
%
Delta-T
°C
Wind Press
QNH
hPa
Press
MSL
hPa
Rain
since 9 am
mm
Dir
 
Spd
km/h
Gust
km/h
Spd
kts
Gust
kts
31/11:30pm 12.5 9.4 5.7 63 3.2 SSE 11 11 6 6 1018.1 1017.6 0.0
31/11:00pm 13.2 10.1 5.4 59 3.7 S 11 11 6 6 1018.0 1017.5 0.0
31/10:30pm 14.3 10.7 4.9 53 4.4 S 13 17 7 9 1017.9 1017.4 0.0
31/10:00pm 14.9 11.1 4.0 48 5.1 S 13 15 7 8 1017.9 1017.4 0.0
31/09:30pm 15.1 11.7 3.9 47 5.2 SE 11 19 6 10 1017.8 1017.3 0.0
31/09:00pm 16.9 13.7 3.2 40 6.4 ENE 9 11 5 6 1017.7 1017.2 0.0
31/08:30pm 16.1 11.9 1.4 37 6.5 ENE 13 20 7 11 1017.4 1016.9 0.0
31/08:00pm 18.7 15.2 1.2 31 7.9 ENE 9 11 5 6 1017.0 1016.4 0.0
31/07:30pm 18.8 15.2 0.9 30 8.1 ENE 9 11 5 6 1016.8 1016.2 0.0
31/07:00pm 19.7 16.1 0.7 28 8.6 ENE 9 11 5 6 1016.3 1015.8 0.0
31/06:30pm 20.5 16.5 0.4 26 9.1 ENE 11 11 6 6 1015.9 1015.4 0.0
31/06:00pm 21.6 17.5 -0.4 23 9.9 E 11 13 6 7 1015.6 1015.1 0.0
31/05:30pm 24.4 19.9 0.0 20 11.3 E 13 17 7 9 1015.4 1014.9 0.0
31/05:00pm 25.4 20.5 -0.6 18 12.0 E 15 17 8 9 1015.3 1014.8 0.0
31/04:30pm 26.0 21.2 -0.1 18 12.2 SE 15 20 8 11 1015.0 1014.5 0.0
31/04:00pm 26.5 23.2 0.3 18 12.4 ENE 7 17 4 9 1015.0 1014.5 0.0
31/03:30pm 25.9 21.4 -0.2 18 12.2 E 13 20 7 11 1015.0 1014.5 0.0
31/03:00pm 26.2 22.2 0.8 19 12.1 E 11 19 6 10 1015.2 1014.7 0.0
31/02:30pm 25.6 21.2 0.3 19 11.9 S 13 22 7 12 1015.4 1014.9 0.0
31/02:00pm 25.3 20.8 0.0 19 11.8 ESE 13 22 7 12 1016.0 1015.5 0.0
31/01:30pm 25.6 20.0 1.0 20 11.7 ESE 20 24 11 13 1016.3 1015.8 0.0
31/01:00pm 25.2 20.9 1.3 21 11.4 ENE 13 20 7 11 1017.0 1016.4 0.0
31/12:30pm 24.7 20.5 1.6 22 11.0 SE 13 22 7 12 1017.6 1017.1 0.0
31/12:00pm 23.9 20.2 2.1 24 10.4 SSE 11 20 6 11 1018.1 1017.6 0.0
31/11:30am 24.1 21.1 4.0 27 10.0 S 9 19 5 10 1018.5 1018.0 0.0
31/11:00am 23.8 20.1 4.2 28 9.8 E 13 17 7 9 1019.1 1018.6 0.0
31/10:30am 22.7 19.7 4.2 30 9.2 S 9 17 5 9 1019.6 1019.1 0.0
31/10:00am 21.5 18.9 6.2 37 7.8 S 9 15 5 8 1020.0 1019.5 0.0
31/09:30am 20.5 18.7 7.8 44 6.6 SSW 7 11 4 6 1020.3 1019.8 0.0
31/09:00am 19.7 18.1 7.8 46 6.2 S 6 11 3 6 1020.4 1019.9 0.0
31/08:30am 17.2 15.7 6.7 50 5.3 S 4 7 2 4 1020.4 1019.9 0.0
31/08:00am 14.2 12.9 6.1 58 3.9 S 2 6 1 3 1020.2 1019.7 0.0
31/07:30am 11.2 10.1 5.3 67 2.7 CALM 0 0 0 0 1020.0 1019.5 0.0
31/07:00am 7.1 5.0 4.1 81 1.3 SSE 4 9 2 5 1019.7 1019.2 0.0
31/06:30am 5.5 3.2 3.0 84 1.0 NNW 4 7 2 4 1019.3 1018.8 0.0
31/06:00am 5.7 3.7 2.4 79 1.4 NW 2 7 1 4 1018.9 1018.4 0.0
31/05:30am 6.8 3.5 2.5 74 1.8 S 9 11 5 6 1018.5 1018.0 0.0
31/05:00am 7.1 4.0 3.5 78 1.5 SSW 9 11 5 6 1018.3 1017.8 0.0
31/04:30am 5.7 2.9 3.2 84 1.1 WNW 7 9 4 5 1018.1 1017.6 0.0
31/04:00am 5.6 3.6 2.1 78 1.4 WSW 2 9 1 5 1017.7 1017.2 0.0
31/03:30am 6.2 4.6 2.5 77 1.5 CALM 0 0 0 0 1017.6 1017.1 0.0
31/03:00am 6.8 4.5 2.5 74 1.8 S 4 7 2 4 1017.7 1017.2 0.0
31/02:30am 7.6 4.4 2.9 72 2.0 SSE 9 11 5 6 1017.7 1017.2 0.0
31/02:00am 7.6 5.3 2.5 70 2.1 SSE 4 9 2 5 1017.9 1017.4 0.0
31/01:30am 8.1 5.4 2.4 67 2.4 S 6 7 3 4 1018.1 1017.6 0.0
31/01:00am 8.3 6.3 2.1 65 2.6 SW 2 9 1 5 1018.2 1017.7 0.0
31/12:30am 8.8 7.1 1.9 62 2.9 CALM 0 0 0 0 1018.3 1017.8 0.0
31/12:00am 10.6 9.0 2.2 56 3.6 CALM 0 0 0 0 1018.5 1018.0 0.0
 
Date/Time
EST
Temp
°C
App
Temp
°C
Dew
Point
Rel
Hum
%
Delta-T
°C
Wind Press
QNH
hPa
Press
MSL
hPa
Rain
since 9 am
mm
Dir
 
Spd
km/h
Gust
km/h
Spd
kts
Gust
kts
30/11:30pm 11.0 8.4 3.1 58 3.5 WSW 6 6 3 3 1018.8 1018.3 0.0
30/11:00pm 10.9 8.6 3.0 58 3.5 SSE 4 9 2 5 1018.9 1018.4 0.0
30/10:30pm 11.2 9.2 2.5 55 3.8 NNE 2 11 1 6 1019.0 1018.5 0.0
30/10:00pm 11.8 9.0 2.0 51 4.2 S 6 7 3 4 1018.9 1018.4 0.0
30/09:30pm 15.5 11.8 2.3 41 6.0 S 11 13 6 7 1018.8 1018.3 0.0
30/09:00pm 13.1 11.4 1.8 46 4.9 CALM 0 0 0 0 1018.6 1018.1 0.0
30/08:30pm 14.5 11.0 1.4 41 5.7 E 9 11 5 6 1018.4 1017.9 0.0
30/08:00pm 17.8 13.9 1.3 33 7.4 E 11 13 6 7 1018.2 1017.7 0.0
30/07:30pm 17.5 12.9 1.5 34 7.2 E 15 17 8 9 1018.1 1017.6 0.0
30/07:00pm 18.4 14.1 1.0 31 7.8 E 13 15 7 8 1017.9 1017.4 0.0
30/06:30pm 19.1 15.1 0.7 29 8.3 E 11 13 6 7 1017.5 1017.0 0.0
30/06:00pm 21.4 17.4 0.6 25 9.5 E 11 13 6 7 1017.4 1016.9 0.0
30/05:30pm 23.2 18.4 0.3 22 10.6 ESE 15 19 8 10 1017.1 1016.5 0.0
30/05:00pm 24.2 19.2 1.2 22 10.9 ESE 17 24 9 13 1016.9 1016.3 0.0
30/04:30pm 24.8 21.6 2.9 24 10.7 E 9 17 5 9 1016.8 1016.2 0.0
30/04:00pm 25.2 21.0 3.8 25 10.7 E 15 24 8 13 1016.8 1016.2 0.0
30/03:30pm 25.1 21.1 3.1 24 10.8 SSE 13 20 7 11 1016.8 1016.2 0.0
30/03:00pm 24.7 19.7 3.4 25 10.5 SE 19 26 10 14 1017.0 1016.4 0.0
30/02:30pm 24.8 20.5 5.1 28 10.1 SSE 17 26 9 14 1017.2 1016.7 0.0
30/02:00pm 24.8 21.4 6.1 30 9.7 E 13 20 7 11 1017.7 1017.2 0.0
30/01:30pm 24.5 21.6 6.3 31 9.5 S 11 26 6 14 1018.2 1017.7 0.0
30/01:00pm 23.2 20.1 5.6 32 9.0 ESE 11 24 6 13 1018.6 1018.1 0.0
30/12:30pm 24.0 20.9 7.2 34 8.9 E 13 22 7 12 1019.3 1018.8 0.0
30/12:00pm 22.8 18.9 7.0 36 8.2 SE 17 26 9 14 1019.7 1019.2 0.0
30/11:30am 21.8 18.1 8.0 41 7.3 ESE 17 26 9 14 1020.4 1019.9 0.0
30/11:00am 22.0 18.3 9.5 45 6.8 ESE 19 26 10 14 1021.1 1020.7 0.0
30/10:30am 20.8 17.5 9.4 48 6.1 E 17 26 9 14 1021.8 1021.3 0.0
30/10:00am 19.8 17.2 10.8 56 4.9 ESE 15 20 8 11 1022.2 1021.7 0.0
30/09:30am 19.3 16.9 10.0 55 5.0 E 13 20 7 11 1022.6 1022.1 0.0
30/09:00am 18.8 16.3 10.9 60 4.3 E 15 20 8 11 1022.6 1022.1 0.0
30/08:30am 17.1 14.5 9.3 60 4.1 ESE 13 19 7 10 1022.3 1021.8 0.0
30/08:00am 14.6 13.7 9.2 70 2.8 SSE 4 7 2 4 1022.0 1021.5 0.0
30/07:30am 11.7 11.6 9.6 87 1.1 CALM 0 0 0 0 1021.6 1021.1 0.0
30/07:00am 8.7 8.1 7.5 92 0.6 CALM 0 0 0 0 1021.1 1020.7 0.0
30/06:30am 7.8 7.0 6.7 93 0.5 CALM 0 0 0 0 1021.0 1020.6 0.0
30/06:00am 7.7 6.9 6.5 92 0.6 CALM 0 0 0 0 1020.7 1020.2 0.0
30/05:30am 7.5 6.2 6.0 90 0.7 WSW 2 7 1 4 1020.1 1019.6 0.0
30/05:00am 7.5 6.4 5.0 84 1.1 CALM 0 0 0 0 1019.7 1019.2 0.0
30/04:30am 9.1 6.5 6.0 81 1.4 S 9 13 5 7 1019.4 1018.9 0.0
30/04:00am 9.6 6.9 7.5 87 1.0 S 11 13 6 7 1019.2 1018.7 0.0
30/03:30am 8.5 7.5 5.6 82 1.3 CALM 0 0 0 0 1018.9 1018.4 0.0
30/03:00am 9.8 8.6 6.3 79 1.6 SE 2 9 1 5 1019.3 1018.8 0.0
30/02:30am 10.2 8.9 6.2 76 1.9 SSE 2 9 1 5 1019.5 1019.0 0.0
30/02:00am 11.6 9.3 7.3 75 2.1 S 9 13 5 7 1019.7 1019.2 0.0
30/01:30am 10.8 7.8 5.8 71 2.3 SSE 11 15 6 8 1019.8 1019.3 0.0
30/01:00am 11.6 9.3 5.7 67 2.8 SSE 7 9 4 5 1020.0 1019.5 0.0
30/12:30am 13.7 11.7 7.2 65 3.2 SSE 7 13 4 7 1020.1 1019.6 0.0
30/12:00am 12.9 10.1 6.9 67 2.9 S 11 15 6 8 1019.9 1019.4 0.0

Other Formats:

Comma delimited format used in spreadsheet applications
http://www.bom.gov.au/fwo/IDQ60801/IDQ60801.94397.axf

JavaScript Object Notation format (JSON) in row-major order
http://www.bom.gov.au/fwo/IDQ60801/IDQ60801.94397.json